Rifle, CO

6:27 AM MDT on June 22, 2017 (GMT -0600)
Garfield County Regional

Weather History for KRIL - March, 2013

Change the Weather History Date:

Wednesday, March 20, 2013

  Actual Average Record
Temperature  
Mean Temperature 37 °F 41 °F  
Max Temperature 51 °F 55 °F 77 °F (2004)
Min Temperature 22 °F 27 °F 7 °F (1965)
Degree Days  
Heating Degree Days 28 24  
Month to date heating degree days 492 538  
Since 1 July heating degree days 5546 5535  
Cooling Degree Days 0 0  
Month to date cooling degree days 0 0  
Year to date cooling degree days 0 0  
Moisture  
Dew Point 15 °F    
Average Humidity 45    
Maximum Humidity 68    
Minimum Humidity 21    
Precipitation  
Precipitation 0.00 in 0.04 in 0.92 in (1912)
Month to date precipitation 0.21 0.63  
Year to date precipitation 0.98 2.20  
Sea Level Pressure  
Sea Level Pressure 30.09 in    
Wind  
Wind Speed 5 mph (ESE)    
Max Wind Speed 17 mph    
Max Gust Speed 21 mph    
Visibility 10 miles    
Events      
T = Trace of Precipitation, MM = Missing Value Source: NWS Daily Summary

Daily Weather History Graph

Daily Weather History Graph

Search for Another Location

Airport or City:

Trip Planner

Search our weather history database for the weather conditions in past years. The results will help you decide how hot, cold, wet, or windy it might be!

Date:

Astronomy

Mar. 20, 2013 Rise Set
Actual Time 7:13 AM MDT 7:23 PM MDT
Civil Twilight 6:47 AM MDT 7:50 PM MDT
Nautical Twilight 6:15 AM MDT 8:21 PM MDT
Astronomical Twilight 5:43 AM MDT 8:53 PM MDT
Moon 1:02 PM MDT (3/20) 2:54 AM MDT (3/20)
Length of Visible Light 13h 03m
Length of Day
12h 09m
First Quarter, 60% of the Moon is Illuminated
Mar 20
First Quarter
Mar 27
Full
Apr 2
Last Quarter
Apr 10
New
Apr 18
First Quarter

Hourly Weather History & Observations

Time (MDT) Temp. Windchill Dew Point Humidity Pressure Visibility Wind Dir Wind Speed Gust Speed Precip Events Conditions
12:53 AM 28.9 °F 22.8 °F 8.1 °F 41% 30.24 in 10.0 mi SSW 5.8 mph - N/A   Clear
1:53 AM 27.0 °F - 10.0 °F 49% 30.24 in 10.0 mi Calm Calm - N/A   Clear
2:53 AM 26.1 °F - 10.0 °F 51% 30.23 in 10.0 mi Calm Calm - N/A   Clear
3:53 AM 24.1 °F 19.7 °F 10.9 °F 57% 30.23 in 10.0 mi ESE 3.5 mph - N/A   Clear
4:53 AM 24.1 °F 19.7 °F 12.0 °F 60% 30.20 in 10.0 mi ESE 3.5 mph - N/A   Clear
5:53 AM 24.1 °F - 10.9 °F 57% 30.21 in 10.0 mi Calm Calm - N/A   Clear
6:53 AM 21.9 °F 13.4 °F 12.0 °F 66% 30.23 in 10.0 mi South 6.9 mph - N/A   Clear
7:53 AM 24.1 °F 19.7 °F 14.0 °F 65% 30.25 in 10.0 mi Variable 3.5 mph - N/A   Clear
8:53 AM 28.0 °F - 12.9 °F 53% 30.23 in 10.0 mi Calm Calm - N/A   Clear
9:53 AM 33.1 °F - 9.0 °F 37% 30.21 in 10.0 mi Calm Calm - N/A   Clear
10:53 AM 36.0 °F - 9.0 °F 33% 30.18 in 10.0 mi Calm Calm - N/A   Clear
11:53 AM 39.9 °F - 9.0 °F 28% 30.13 in 10.0 mi Calm Calm - N/A   Clear
12:53 PM 42.1 °F 40.2 °F 8.1 °F 25% 30.09 in 10.0 mi East 3.5 mph - N/A   Mostly Cloudy
1:53 PM 45.0 °F 42.6 °F 9.0 °F 23% 30.05 in 10.0 mi ENE 4.6 mph - N/A   Mostly Cloudy
2:53 PM 46.9 °F - 10.0 °F 22% 30.01 in 10.0 mi Calm Calm - N/A   Overcast
3:53 PM 48.9 °F - 10.0 °F 21% 29.98 in 10.0 mi Variable 4.6 mph - N/A   Overcast
4:53 PM 50.0 °F - 12.9 °F 23% 29.96 in 10.0 mi ESE 8.1 mph - N/A   Mostly Cloudy
5:53 PM 51.1 °F - 15.1 °F 24% 29.94 in 10.0 mi East 8.1 mph - N/A   Overcast
6:53 PM 50.0 °F - 27.0 °F 41% 29.93 in 10.0 mi ESE 11.5 mph - N/A   Overcast
7:53 PM 48.0 °F - 28.0 °F 46% 29.92 in 10.0 mi East 16.1 mph - N/A   Overcast
8:53 PM 45.0 °F 38.2 °F 30.0 °F 56% 29.90 in 10.0 mi East 15.0 mph - N/A   Scattered Clouds
9:53 PM 43.0 °F 38.8 °F 28.9 °F 58% 29.88 in 10.0 mi East 6.9 mph - N/A   Overcast
10:53 PM 43.0 °F 36.0 °F 30.9 °F 62% 29.86 in 10.0 mi East 13.8 mph - N/A   Mostly Cloudy